| time (UTC) | temp C | wind direction | speed KPH | gust KPH | rain 1hr cm | rain 24hr cm | rain mn cm | humidity % | barometer mb |
| 20260831021504 | 16 | 204 | 6.4 | 19.3 | 0.00 | 0.25 | 0.00 | 91 | 1006.1 |
| 20260831020004 | 16 | 211 | 4.8 | 16.1 | 0.00 | 0.25 | 0.00 | 91 | 1006.0 |
| 20260831014504 | 16 | 207 | 4.8 | 16.1 | 0.00 | 0.25 | 0.00 | 90 | 1005.9 |
| 20260831011504 | 16 | 216 | 3.2 | 16.1 | 0.00 | 0.25 | 0.00 | 89 | 1005.7 |
| 20260831010004 | 17 | 218 | 3.2 | 16.1 | 0.00 | 0.25 | 0.00 | 88 | 1005.7 |
| 20260830234504 | 17 | 251 | 3.2 | 19.3 | 0.00 | 0.25 | 0.00 | 88 | 1005.2 |
| 20260830233003 | 17 | 271 | 4.8 | 20.9 | 0.00 | 0.25 | 0.00 | 88 | 1005.5 |
| 20260830231504 | 17 | 242 | 4.8 | 16.1 | 0.00 | 0.25 | 0.00 | 89 | 1005.4 |
| 20260830230004 | 17 | 243 | 3.2 | 9.7 | 0.00 | 0.25 | 0.00 | 89 | 1005.2 |
| 20260830224504 | 18 | 273 | 3.2 | 20.9 | 0.00 | 0.25 | 0.00 | 89 | 1003.9 |
| 20260830220005 | 18 | 211 | 4.8 | 12.9 | 0.00 | 0.25 | 0.00 | 92 | 1003.9 |
| 20260830214504 | 18 | 204 | 4.8 | 16.1 | 0.00 | 0.25 | 0.25 | 92 | 1003.5 |
| 20260830213005 | 18 | 211 | 4.8 | 14.5 | 0.00 | 0.25 | 0.25 | 92 | 1003.5 |
| 20260830211504 | 18 | 203 | 6.4 | 12.9 | 0.00 | 0.25 | 0.25 | 92 | 1003.5 |
| 20260830210004 | 18 | 209 | 6.4 | 14.5 | 0.00 | 0.25 | 0.25 | 92 | 1003.2 |
| 20260830204504 | 18 | 175 | 4.8 | 14.5 | 0.00 | 0.25 | 0.25 | 92 | 1003.1 |
| 20260830201504 | 18 | 213 | 6.4 | 19.3 | 0.00 | 0.25 | 0.25 | 93 | 1002.6 |
| 20260830193005 | 18 | 204 | 8.0 | 19.3 | 0.00 | 0.25 | 0.25 | 92 | 1002.7 |
| 20260830191504 | 18 | 179 | 8.0 | 19.3 | 0.00 | 0.25 | 0.25 | 92 | 1002.8 |
| 20260830183004 | 18 | 197 | 8.0 | 22.5 | 0.00 | 0.25 | 0.25 | 92 | 1003.0 |
| 20260830181504 | 18 | 202 | 6.4 | 22.5 | 0.00 | 0.25 | 0.25 | 92 | 1002.8 |
| 20260830174504 | 18 | 202 | 8.0 | 24.1 | 0.00 | 0.25 | 0.25 | 93 | 1002.9 |
| 20260830173004 | 18 | 188 | 6.4 | 24.1 | 0.00 | 0.25 | 0.25 | 93 | 1002.9 |
| 20260830171504 | 18 | 187 | 9.7 | 24.1 | 0.03 | 0.25 | 0.25 | 93 | 1002.8 |
| 20260830164504 | 18 | 198 | 9.7 | 22.5 | 0.03 | 0.25 | 0.25 | 92 | 1002.7 |
| 20260830163004 | 18 | 170 | 11.3 | 25.7 | 0.03 | 0.25 | 0.25 | 93 | 1002.8 |
| 20260830161504 | 18 | 176 | 11.3 | 25.7 | 0.05 | 0.23 | 0.23 | 92 | 1003.0 |
| 20260830160004 | 18 | 210 | 9.7 | 32.2 | 0.15 | 0.23 | 0.23 | 93 | 1003.0 |
| 20260830153006 | 18 | 192 | 8.0 | 24.1 | 0.15 | 0.23 | 0.23 | 92 | 1003.2 |
| 20260830151504 | 18 | 180 | 11.3 | 32.2 | 0.13 | 0.20 | 0.20 | 91 | 1003.2 |
| 20260830150005 | 18 | 188 | 11.3 | 32.2 | 0.03 | 0.10 | 0.10 | 90 | 1003.3 |
| 20260830144504 | 18 | 182 | 9.7 | 24.1 | 0.00 | 0.08 | 0.08 | 88 | 1003.6 |
| 20260830143005 | 18 | 193 | 9.7 | 32.2 | 0.05 | 0.08 | 0.08 | 88 | 1003.6 |
| 20260830134504 | 18 | 187 | 8.0 | 22.5 | 0.05 | 0.08 | 0.08 | 90 | 1003.9 |
| 20260830133006 | 18 | 182 | 8.0 | 19.3 | 0.03 | 0.05 | 0.05 | 89 | 1003.9 |
| 20260830124505 | 20 | 195 | 8.0 | 29.0 | 0.00 | 0.03 | 0.03 | 84 | 1003.9 |
| 20260830121504 | 20 | 194 | 9.7 | 20.9 | 0.00 | 0.03 | 0.03 | 84 | 1004.3 |
| 20260830120005 | 20 | 182 | 9.7 | 25.7 | 0.00 | 0.03 | 0.03 | 84 | 1004.3 |
| 20260830114505 | 20 | 200 | 9.7 | 20.9 | 0.00 | 0.03 | 0.03 | 84 | 1004.3 |
| 20260830113005 | 20 | 201 | 9.7 | 25.7 | 0.00 | 0.03 | 0.03 | 85 | 1004.3 |
| 20260830111504 | 20 | 180 | 8.0 | 20.9 | 0.03 | 0.03 | 0.03 | 86 | 1004.3 |
| 20260830103006 | 19 | 189 | 8.0 | 20.9 | 0.03 | 0.03 | 0.03 | 86 | 1004.3 |
| 20260830100005 | 21 | 212 | 9.7 | 25.7 | 0.00 | 0.00 | 0.00 | 80 | 1004.4 |
| 20260830093005 | 20 | 205 | 9.7 | 24.1 | 0.00 | 0.00 | 0.00 | 81 | 1004.6 |
| 20260830084505 | 20 | 190 | 8.0 | 19.3 | 0.00 | 0.00 | 0.00 | 79 | 1005.0 |
| 20260830081505 | 20 | 179 | 4.8 | 12.9 | 0.00 | 0.00 | 0.00 | 81 | 1005.0 |
| 20260830074505 | 19 | 157 | 3.2 | 9.7 | 0.00 | 0.00 | 0.00 | 87 | 1005.2 |
| 20260830070005 | 18 | 174 | 1.6 | 11.3 | 0.00 | 0.00 | 0.00 | 89 | 1005.6 |
| 20260830063005 | 18 | 170 | 3.2 | 12.9 | 0.00 | 0.00 | 0.00 | 91 | 1005.7 |
| 20260830061505 | 18 | 196 | 4.8 | 14.5 | 0.00 | 0.00 | 0.00 | 91 | 1005.7 |
| 20260830053006 | 17 | 196 | 4.8 | 12.9 | 0.00 | 0.00 | 0.00 | 94 | 1005.9 |
| 20260830051504 | 17 | 179 | 4.8 | 14.5 | 0.00 | 0.00 | 0.00 | 94 | 1006.0 |
| 20260830050005 | 17 | 175 | 3.2 | 9.7 | 0.00 | 0.00 | 0.00 | 94 | 1006.0 |
| 20260830043005 | 16 | 192 | 1.6 | 8.0 | 0.00 | 0.00 | 0.00 | 94 | 1006.0 |
| 20260830033007 | 16 | 157 | 1.6 | 4.8 | 0.00 | 0.05 | 0.00 | 93 | 1006.3 |
| 20260830024505 | 16 | 183 | 3.2 | 4.8 | 0.00 | 0.28 | 0.00 | 92 | 1006.1 |